This demonstration page uses our WeatherBlox Daily Observations layout. Learn more.

Left ArrowRight Arrow

40.92945, -100.16068

Hourly Observations for February 18, 2022

Temp ( °F °C ) Dew Point ( °F °C ) Humidity (%) Winds ( mph kmh ) Pressure ( in mb ) Visibility ( mi km ) Precip ( " mm )
12:15 am 00:15 Clear 29 -1.7 14 -10.1 53 53 SW 17 28 30.17 1022 10 16 0.00 0.00
12:35 am 00:35 Clear 28 -2 14 -10 55 55 SW 20 31 30.18 1022 10 16 0.00 0.00
12:55 am 00:55 Clear 28 -2.1 15 -9.7 56 56 SW 15 24 30.18 1022 10 16 0.00 0.00
1:15 am 01:15 Partly Cloudy 28 -2.2 15 -9.5 58 58 WSW 13 20 30.18 1022 10 16 0.00 0.00
1:35 am 01:35 Partly Cloudy 27 -2.7 15 -9.5 60 60 WSW 12 19 30.18 1022 10 16 0.00 0.00
1:55 am 01:55 Partly Cloudy 27 -2.6 15 -9.3 60 60 WSW 10 17 30.18 1022 10 16 0.00 0.00
2:15 am 02:15 Mostly Cloudy 27 -2.6 15 -9.3 60 60 W 12 19 30.17 1022 10 16 0.00 0.00
2:35 am 02:35 Partly Cloudy 27 -2.6 15 -9.2 61 61 SW 13 20 30.17 1022 10 16 0.00 0.00
2:55 am 02:55 Clear 27 -2.8 16 -9.1 62 62 WSW 8 13 30.17 1022 10 16 0.00 0.00
3:15 am 03:15 Clear 27 -2.6 16 -9 62 62 WSW 10 17 30.15 1021 10 16 0.00 0.00
3:35 am 03:35 Partly Cloudy 27 -2.6 16 -8.8 63 63 W 12 19 30.14 1021 10 16 0.00 0.00
3:55 am 03:55 Mostly Cloudy 26 -3.5 16 -9.1 66 66 W 10 17 30.15 1021 10 16 0.00 0.00
4:15 am 04:15 Partly Cloudy 25 -3.8 15 -9.2 66 66 W 9 15 30.16 1021 10 16 0.00 0.00
4:35 am 04:35 Clear 26 -3.6 15 -9.2 66 66 WSW 8 13 30.16 1021 10 16 0.00 0.00
4:55 am 04:55 Clear 26 -3.6 16 -9.1 66 66 W 7 11 30.15 1021 10 16 0.00 0.00
5:15 am 05:15 Clear 25 -4 15 -9.3 67 67 W 7 11 30.16 1021 10 16 0.00 0.00
5:35 am 05:35 Partly Cloudy 25 -3.7 16 -9.1 67 67 W 9 15 30.16 1021 10 16 0.00 0.00
5:55 am 05:55 Mostly Cloudy 24 -4.6 15 -9.5 69 69 W 8 13 30.17 1022 10 16 0.00 0.00
6:15 am 06:15 Partly Cloudy 23 -5.2 14 -9.8 70 70 W 7 11 30.18 1022 10 16 0.00 0.00
6:35 am 06:35 Clear 22 -5.8 14 -10 73 73 WNW 5 7 30.20 1023 10 16 0.00 0.00
6:55 am 06:55 Clear 21 -6.1 14 -9.8 75 75 WNW 9 15 30.20 1023 10 16 0.00 0.00
7:15 am 07:15 Clear 18 -8 12 -11.1 79 79 WNW 9 15 30.22 1023 10 16 0.00 0.00
7:35 am 07:35 Sunny 19 -7.5 13 -10.5 79 79 WNW 5 7 30.23 1024 10 16 0.00 0.00
7:55 am 07:55 Sunny 21 -6.2 14 -10 75 75 NW 5 7 30.22 1023 10 16 0.00 0.00
8:15 am 08:15 Sunny 22 -5.4 15 -9.5 73 73 NW 5 7 30.22 1023 10 16 0.00 0.00
8:35 am 08:35 Sunny 26 -3.3 17 -8.6 67 67 WNW 5 7 30.21 1023 10 16 0.00 0.00
8:55 am 08:55 Sunny 30 -1.3 18 -7.7 62 62 NW 5 7 30.19 1022 10 16 0.00 0.00
9:15 am 09:15 Sunny 33 0.4 20 -6.7 59 59 W 7 11 30.19 1022 10 16 0.00 0.00
9:35 am 09:35 Sunny 36 2.3 21 -5.9 55 55 WNW 10 17 30.16 1021 10 16 0.00 0.00
9:55 am 09:55 Sunny 40 4.7 23 -4.8 51 51 WNW 12 19 30.15 1021 10 16 0.00 0.00
10:15 am 10:15 Sunny 44 6.4 24 -4.5 46 46 WNW 14 22 30.12 1020 10 16 0.00 0.00
10:35 am 10:35 Sunny 45 7.4 24 -4.3 44 44 WNW 16 26 30.11 1019 10 16 0.00 0.00
10:55 am 10:55 Sunny 47 8.3 24 -4.2 41 41 WNW 18 30 30.10 1019 10 16 0.00 0.00
11:15 am 11:15 Sunny 48 8.9 24 -4.2 40 40 WNW 18 30 30.09 1019 10 16 0.00 0.00
11:35 am 11:35 Sunny 49 9.7 24 -4.2 38 38 WNW 17 28 30.08 1019 10 16 0.00 0.00
11:55 am 11:55 Sunny 51 10.3 24 -4.3 36 36 WNW 17 28 30.08 1019 10 16 0.00 0.00
12:15 pm 12:15 Sunny 53 11.4 24 -4.2 34 34 WNW 18 30 30.06 1018 10 16 0.00 0.00
12:35 pm 12:35 Sunny 53 11.7 24 -4.5 32 32 WNW 18 30 30.06 1018 10 16 0.00 0.00
12:55 pm 12:55 Sunny 54 12.1 24 -4.5 31 31 WNW 17 28 30.04 1017 10 16 0.00 0.00
1:15 pm 13:15 Sunny 55 12.8 24 -4.6 30 30 WNW 16 26 30.03 1017 10 16 0.00 0.00
1:35 pm 13:35 Sunny 55 13 23 -5 28 28 W 21 33 30.01 1016 10 16 0.00 0.00
1:55 pm 13:55 Sunny 57 13.8 22 -5.3 26 26 WNW 25 41 30.00 1016 10 16 0.00 0.00
2:15 pm 14:15 Sunny 57 14 21 -6 25 25 WNW 29 46 29.99 1016 10 16 0.00 0.00
2:35 pm 14:35 Sunny 58 14.4 20 -6.9 22 22 WNW 28 44 29.99 1016 10 16 0.00 0.00
2:55 pm 14:55 Sunny 58 14.2 19 -7.3 22 22 WNW 24 39 29.99 1016 10 16 0.00 0.00
3:15 pm 15:15 Mostly Cloudy 56 13.4 18 -7.7 23 23 WNW 21 33 30.00 1016 10 16 0.00 0.00
3:35 pm 15:35 Cloudy 57 14.1 17 -8.2 21 21 NW 25 41 29.99 1016 10 16 0.00 0.00
3:55 pm 15:55 Cloudy 57 13.7 18 -8 22 22 WNW 24 39 30.00 1016 10 16 0.00 0.00
4:15 pm 16:15 Mostly Cloudy 58 14.3 18 -7.9 21 21 WNW 26 43 29.99 1016 10 16 0.00 0.00
4:35 pm 16:35 Partly Cloudy 57 13.7 18 -7.6 22 22 WNW 25 41 30.01 1016 10 16 0.00 0.00
4:55 pm 16:55 Partly Cloudy 56 13.2 18 -8 22 22 NW 25 41 30.01 1016 10 16 0.00 0.00
5:15 pm 17:15 Partly Cloudy 55 12.5 18 -7.9 24 24 NW 22 35 30.03 1017 10 16 0.00 0.00
5:35 pm 17:35 Partly Cloudy 53 11.6 19 -7 27 27 NW 20 31 30.05 1017 10 16 0.00 0.00
5:55 pm 17:55 Sunny 52 11 20 -6.5 29 29 NW 18 30 30.06 1018 10 16 0.00 0.00
6:15 pm 18:15 Sunny 50 10 21 -6.2 32 32 NW 13 20 30.08 1019 10 16 0.00 0.00
6:35 pm 18:35 Clear 48 8.9 21 -6 35 35 NW 12 19 30.11 1020 10 16 0.00 0.00
6:55 pm 18:55 Clear 48 8.7 22 -5.7 36 36 NW 12 19 30.12 1020 10 16 0.00 0.00
7:15 pm 19:15 Partly Cloudy 47 8.1 22 -5.7 37 37 NW 8 13 30.13 1020 10 16 0.00 0.00
7:35 pm 19:35 Mostly Cloudy 46 7.8 22 -5.4 39 39 N 21 33 30.15 1021 10 16 0.00 0.00
7:55 pm 19:55 Partly Cloudy 44 6.4 27 -2.8 52 52 NNE 18 30 30.19 1022 10 16 0.00 0.00
8:15 pm 20:15 Partly Cloudy 41 5.1 27 -2.7 57 57 NNE 15 24 30.23 1024 10 16 0.00 0.00
8:35 pm 20:35 Clear 39 3.7 26 -3.1 61 61 N 17 28 30.26 1025 10 16 0.00 0.00
8:55 pm 20:55 Clear 38 3.5 27 -3 63 63 N 16 26 30.27 1025 10 16 0.00 0.00
9:15 pm 21:15 Clear 35 1.9 26 -3.6 67 67 N 8 13 30.32 1027 10 16 0.00 0.00
9:35 pm 21:35 Clear 33 0.7 25 -4.1 71 71 Calm 30.34 1027 10 16 0.00 0.00
9:55 pm 21:55 Clear 33 0.5 24 -4.3 71 71 NW 6 9 30.35 1028 10 16 0.00 0.00
10:15 pm 22:15 Clear 30 -0.9 23 -5.1 73 73 NW 3 6 30.38 1029 10 16 0.00 0.00
10:35 pm 22:35 Clear 29 -1.7 22 -5.4 76 76 NNW 7 11 30.40 1029 10 16 0.00 0.00
10:55 pm 22:55 Clear 27 -2.6 21 -6.1 77 77 N 10 17 30.41 1030 10 16 0.00 0.00
11:15 pm 23:15 Clear 29 -1.6 22 -5.4 76 76 NNE 15 24 30.42 1030 10 16 0.00 0.00
11:35 pm 23:35 Mostly Cloudy 28 -2.2 21 -6 75 75 NNE 12 19 30.43 1030 10 16 0.00 0.00
11:55 pm 23:55 Mostly Cloudy 27 -2.9 20 -6.4 77 77 NNE 8 13 30.44 1031 10 16 0.00 0.00

Powered by AerisWeather